Temp
20 21 21 21 22 20 21 22 22 21 20 19 20 19 19 19 19 19 19 18 19 19
21 21 22 22 21 22 22 20 21 21 20 19 19 20 19 20 19 19 19 19 19 19
20 21 21 21 21 22 21 18 19 20 20 20 20 19 20 20 20 19 19 20 20 19
21 21 20 21 20 20 20 20 20 20 20 20 19 19 19 21 20 19 19 19 19 19
21 22 22 21 21 21 21 20 20 20 19 19 20 19 20 20 19 19 19 19 19 19
22 22 22 21 21 21 21 20 20 20 20 19 19 19 20 19 19 19 20 20 19 19
23 22 22 22 21 21 21 20 20 20 20 19 20 20 19 19 20 19 18 19 20 18
23 24 23 21 21 21 20 20 20 20 20 20 20 20 20 19 19 19 19 18 18 18
23 24 24 22 22 21 20 20 20 20 20 20 20 21 21 20 19 19 18 18 18 18
23 24 24 22 22 20 20 20 20 20 20 19 20 21 21 21 20 18 19 19 19 18
21 23 23 22 22 21 21 20 20 20 20 19 21 21 20 20 19 18 18 16 17 18
22 23 24 21 21 20 20 20 20 20 19 20 21 21 20 20 19 18 17 18 17 17
24 23 23 21 21 21 20 20 20 19 19 21 21 20 20 20 19 19 18 17 17 17
25 24 21 21 21 21 20 20 20 19 19 20 20 20 20 20 19 18 18 18 18 16
Height
1558 1560 1559 1558 1568 1562 1567 1568 1562 1568 1566 1573 1576 1577 1579 1579 1579 1580 1580 1579 1579 1581
1555 1558 1559 1557 1556 1566 1570 1550 1553 1576 1576 1569 1574 1575 1577 1578 1578 1579 1579 1579 1579 1578
1553 1555 1558 1558 1555 1557 1563 1534 1553 1577 1579 1568 1569 1573 1576 1578 1577 1577 1578 1577 1577 1577
1551 1554 1556 1558 1557 1559 1569 1572 1576 1578 1578 1569 1570 1573 1575 1575 1576 1574 1574 1575 1574 1573
1548 1552 1554 1556 1557 1558 1561 1568 1572 1571 1566 1565 1570 1572 1573 1573 1573 1572 1572 1571 1570 1569
1545 1548 1552 1554 1557 1559 1559 1559 1560 1561 1564 1567 1570 1570 1570 1570 1570 1569 1569 1568 1567 1566
1539 1545 1549 1552 1555 1557 1559 1560 1562 1563 1564 1567 1568 1569 1568 1569 1568 1567 1568 1565 1563 1564
1537 1540 1545 1549 1553 1555 1556 1558 1561 1562 1564 1566 1567 1567 1566 1567 1567 1567 1567 1566 1565 1564
1534 1537 1540 1545 1548 1551 1554 1557 1559 1560 1561 1563 1563 1565 1565 1566 1566 1565 1564 1563 1561 1561
1529 1533 1537 1540 1544 1548 1551 1553 1556 1559 1560 1561 1561 1563 1564 1565 1565 1564 1562 1560 1558 1557
1527 1531 1535 1537 1540 1545 1549 1550 1552 1555 1558 1558 1560 1561 1562 1563 1564 1562 1560 1561 1559 1556
1524 1528 1531 1534 1538 1542 1545 1548 1550 1553 1555 1556 1558 1559 1561 1563 1564 1562 1561 1559 1557 1555
1519 1524 1527 1532 1535 1540 1544 1545 1549 1552 1555 1555 1557 1558 1560 1562 1563 1561 1561 1557 1555 1553
1513 1519 1527 1531 1534 1538 1542 1545 1548 1550 1551 1553 1555 1556 1557 1558 1558 1559 1559 1558 1557 1549
Wind_Speed
17 14 15 16 13 6 8 13 11 7 7 7 5 5 4 3 4 6 5 7 9 8
19 17 14 14 12 10 6 11 11 2 6 7 5 5 5 3 5 7 6 6 7 7
18 19 15 13 13 12 4 9 5 6 5 2 2 4 5 4 7 6 6 6 8 9
18 17 16 14 12 11 5 4 6 7 7 4 5 6 6 6 8 9 9 8 10 10
19 18 16 16 12 11 9 6 7 5 2 3 5 6 6 7 8 10 10 10 12 12
20 19 18 17 15 13 11 9 6 4 6 5 6 7 7 7 7 9 11 10 9 11
24 21 18 17 16 15 13 12 11 12 8 6 6 6 5 6 4 3 4 7 6 6
25 23 21 19 18 17 16 13 12 11 10 7 6 5 1 3 1 3 6 6 9 10
26 24 24 23 21 20 16 13 12 11 9 9 8 5 6 4 2 7 8 10 11 12
27 25 24 23 22 19 17 14 11 11 10 9 10 8 7 2 4 6 9 10 9 6
25 23 21 20 23 20 18 17 14 14 12 14 10 9 8 3 4 5 7 4 6 8
26 24 21 20 21 21 19 18 16 15 16 13 12 10 7 1 1 5 5 14 9 9
26 24 21 23 23 21 19 18 15 15 14 12 12 11 8 2 1 5 4 7 10 14
28 24 22 23 23 22 18 18 19 18 16 14 13 9 6 4 4 3 3 5 8 16
Wind_Direction
206 207 214 231 214 251 234 198 192 182 161 184 204 178 213 241 227 253 261 256 253 266
210 199 215 228 246 233 258 227 140 207 184 160 201 205 230 188 257 224 278 262 275 275
205 208 205 221 227 235 264 104 94 194 229 150 221 223 226 232 258 237 238 260 247 256
203 208 210 216 228 235 215 224 190 204 213 199 212 217 238 235 253 262 261 258 259 257
198 201 209 212 220 229 226 208 206 214 197 181 222 230 245 263 259 275 276 275 271 267
197 201 203 213 210 217 223 225 226 230 235 230 225 233 263 267 272 276 290 289 294 285
198 199 199 204 212 207 211 215 211 223 235 215 230 263 252 261 283 315 310 314 307 289
206 208 207 206 206 212 212 211 211 217 213 197 233 224 187 176 181 326 318 307 309 305
212 215 207 207 213 210 210 200 207 212 200 183 208 232 178 158 336 330 321 299 272 272
211 206 207 210 207 206 202 191 191 191 178 184 199 186 176 220 324 331 309 331 332 292
199 197 203 208 204 199 199 186 178 178 178 193 180 187 197 247 336 347 352 356 0 0
201 199 205 202 196 194 186 184 179 178 181 193 190 193 202 155 298 343 333 348 352 346
198 204 212 190 194 191 186 184 166 176 178 192 192 194 196 196 315 323 321 288 317 316
197 206 193 193 188 183 174 179 176 175 185 193 196 195 209 255 262 285 311 288 300 296